Time,TemperatureF,DewpointF,PressureIn,WindDirection,WindDirectionDegrees,WindSpeedMPH,WindSpeedGustMPH,Humidity,HourlyPrecipIn,Conditions,Clouds,dailyrainin,SoftwareType,DateUTC
2013-09-01 00:01:00,73.2,51.8,29.84,ESE,102,0.0,0.0,47,0.00,RA,,0.00,WeatherDisplay:10.37,2013-09-01 04:01:00,
2013-09-01 00:05:00,73.2,51.8,29.84,ESE,102,0.0,0.0,47,0.00,RA,,0.00,WeatherDisplay:10.37,2013-09-01 04:05:00,
2013-09-01 00:06:00,73.2,51.8,29.84,ESE,102,0.0,0.0,47,0.00,RA,,0.00,WeatherDisplay:10.37,2013-09-01 04:06:00,
2013-09-01 00:11:00,73.2,51.8,29.84,ESE,102,0.0,0.0,47,0.00,CLR,,0.00,WeatherDisplay:10.37,2013-09-01 04:11:00,
2013-09-01 00:16:00,73.2,51.8,29.84,ESE,102,0.0,0.0,47,0.00,CLR,,0.00,WeatherDisplay:10.37,2013-09-01 04:16:00,
2013-09-01 00:21:00,73.2,51.8,29.84,ESE,102,0.0,0.0,47,0.00,CLR,,0.00,WeatherDisplay:10.37,2013-09-01 04:21:00,
2013-09-01 00:26:00,73.0,51.6,29.84,ESE,102,0.0,0.0,47,0.00,CLR,,0.00,WeatherDisplay:10.37,2013-09-01 04:26:00,
2013-09-01 00:31:00,73.0,51.6,29.84,ESE,102,0.0,0.0,47,0.00,CLR,,0.00,WeatherDisplay:10.37,2013-09-01 04:31:00,
2013-09-01 00:36:00,73.0,51.6,29.84,ESE,102,0.0,0.0,47,0.00,CLR,,0.00,WeatherDisplay:10.37,2013-09-01 04:36:00,
2013-09-01 00:41:00,73.0,51.6,29.84,ESE,102,0.0,0.0,47,0.00,CLR,,0.00,WeatherDisplay:10.37,2013-09-01 04:41:00,
2013-09-01 00:46:00,73.0,51.6,29.84,ESE,102,0.0,0.0,47,0.00,CLR,,0.00,WeatherDisplay:10.37,2013-09-01 04:46:00,
2013-09-01 00:51:00,73.0,51.6,29.84,ESE,102,0.0,0.0,47,0.00,CLR,,0.00,WeatherDisplay:10.37,2013-09-01 04:51:00,
2013-09-01 00:56:00,72.9,51.4,29.84,ESE,102,0.0,0.0,47,0.00,CLR,,0.00,WeatherDisplay:10.37,2013-09-01 04:56:00,
2013-09-01 01:01:00,72.9,52.0,29.84,ESE,102,0.0,0.0,48,0.00,CLR,,0.00,WeatherDisplay:10.37,2013-09-01 05:01:00,
2013-09-01 01:06:00,72.9,52.0,29.84,ESE,102,0.0,0.0,48,0.00,CLR,,0.00,WeatherDisplay:10.37,2013-09-01 05:06:00,
2013-09-01 01:11:00,72.9,52.0,29.84,ESE,102,0.0,0.0,48,0.00,CLR,,0.00,WeatherDisplay:10.37,2013-09-01 05:11:00,
2013-09-01 01:16:00,72.7,51.9,29.81,ESE,102,0.0,0.0,48,0.00,CLR,,0.00,WeatherDisplay:10.37,2013-09-01 05:16:00,
2013-09-01 01:21:00,72.7,51.9,29.81,ESE,102,0.0,0.0,48,0.00,CLR,,0.00,WeatherDisplay:10.37,2013-09-01 05:21:00,
2013-09-01 01:26:00,72.7,52.4,29.81,ESE,102,0.0,0.0,49,0.00,CLR,,0.00,WeatherDisplay:10.37,2013-09-01 05:26:00,
2013-09-01 01:31:00,72.5,52.2,29.81,ESE,102,0.0,0.0,49,0.00,CLR,,0.00,WeatherDisplay:10.37,2013-09-01 05:31:00,
2013-09-01 01:36:00,72.7,53.0,29.81,ESE,102,0.0,0.0,50,0.00,CLR,,0.00,WeatherDisplay:10.37,2013-09-01 05:36:00,
2013-09-01 01:41:00,72.7,52.4,29.81,ESE,102,0.0,0.0,49,0.00,CLR,,0.00,WeatherDisplay:10.37,2013-09-01 05:41:00,
2013-09-01 01:46:00,72.5,52.2,29.81,ESE,102,0.0,0.0,49,0.00,CLR,,0.00,WeatherDisplay:10.37,2013-09-01 05:46:00,
2013-09-01 01:51:00,72.3,51.5,29.81,ESE,102,0.0,0.0,48,0.00,CLR,,0.00,WeatherDisplay:10.37,2013-09-01 05:51:00,
2013-09-01 01:56:00,72.3,51.5,29.81,ESE,102,0.0,0.0,48,0.00,CLR,,0.00,WeatherDisplay:10.37,2013-09-01 05:56:00,
2013-09-01 02:01:00,72.3,51.5,29.81,ESE,102,0.0,0.0,48,0.00,CLR,,0.00,WeatherDisplay:10.37,2013-09-01 06:01:00,
2013-09-01 02:06:00,72.1,51.4,29.81,ESE,102,0.0,0.0,48,0.00,CLR,,0.00,WeatherDisplay:10.37,2013-09-01 06:06:00,
2013-09-01 02:11:00,72.1,51.9,29.81,ESE,102,0.0,0.0,49,0.00,CLR,,0.00,WeatherDisplay:10.37,2013-09-01 06:11:00,
2013-09-01 02:16:00,72.3,53.2,29.81,ESE,102,0.0,0.0,51,0.00,CLR,,0.00,WeatherDisplay:10.37,2013-09-01 06:16:00,
2013-09-01 02:21:00,72.3,53.2,29.81,ESE,102,0.0,0.0,51,0.00,CLR,,0.00,WeatherDisplay:10.37,2013-09-01 06:21:00,
2013-09-01 02:26:00,72.3,52.6,29.81,ESE,102,0.0,0.0,50,0.00,CLR,,0.00,WeatherDisplay:10.37,2013-09-01 06:26:00,
2013-09-01 02:31:00,72.5,53.3,29.81,ESE,102,2.3,0.0,51,0.00,CLR,,0.00,WeatherDisplay:10.37,2013-09-01 06:31:00,
2013-09-01 02:36:00,72.7,54.0,29.81,ESE,102,0.0,0.0,52,0.00,CLR,,0.00,WeatherDisplay:10.37,2013-09-01 06:36:00,
2013-09-01 02:41:00,72.7,54.0,29.81,ESE,102,0.0,0.0,52,0.00,CLR,,0.00,WeatherDisplay:10.37,2013-09-01 06:41:00,
2013-09-01 02:46:00,72.5,53.3,29.81,ESE,102,0.0,0.0,51,0.00,CLR,,0.00,WeatherDisplay:10.37,2013-09-01 06:46:00,
2013-09-01 02:51:00,72.7,54.6,29.81,ESE,102,0.0,0.0,53,0.00,CLR,,0.00,WeatherDisplay:10.37,2013-09-01 06:51:00,
2013-09-01 02:56:00,72.9,54.7,29.81,ESE,102,0.0,0.0,53,0.00,CLR,,0.00,WeatherDisplay:10.37,2013-09-01 06:56:00,
2013-09-01 03:01:00,72.9,54.7,29.81,ESE,102,0.0,0.0,53,0.00,CLR,,0.00,WeatherDisplay:10.37,2013-09-01 07:01:00,
2013-09-01 03:06:00,72.9,54.2,29.81,ESE,102,0.0,0.0,52,0.00,CLR,,0.00,WeatherDisplay:10.37,2013-09-01 07:06:00,
2013-09-01 03:11:00,72.9,55.2,29.81,ESE,102,0.0,0.0,54,0.00,CLR,,0.00,WeatherDisplay:10.37,2013-09-01 07:11:00,
2013-09-01 03:16:00,72.7,54.0,29.81,ESE,102,0.0,0.0,52,0.00,CLR,,0.00,WeatherDisplay:10.37,2013-09-01 07:16:00,
2013-09-01 03:21:00,72.5,53.3,29.81,ESE,102,0.0,0.0,51,0.00,CLR,,0.00,WeatherDisplay:10.37,2013-09-01 07:21:00,
2013-09-01 03:26:00,72.3,52.6,29.81,ESE,102,0.0,0.0,50,0.00,CLR,,0.00,WeatherDisplay:10.37,2013-09-01 07:26:00,
2013-09-01 03:31:00,72.3,52.6,29.81,ESE,102,0.0,0.0,50,0.00,CLR,,0.00,WeatherDisplay:10.37,2013-09-01 07:31:00,
2013-09-01 03:36:00,72.3,53.2,29.81,ESE,102,0.0,0.0,51,0.00,CLR,,0.00,WeatherDisplay:10.37,2013-09-01 07:36:00,
2013-09-01 03:41:00,72.1,53.0,29.81,ESE,102,0.0,0.0,51,0.00,CLR,,0.00,WeatherDisplay:10.37,2013-09-01 07:41:00,
2013-09-01 03:46:00,72.0,53.4,29.81,ESE,102,0.0,0.0,52,0.00,CLR,,0.00,WeatherDisplay:10.37,2013-09-01 07:46:00,
2013-09-01 03:51:00,72.0,53.4,29.81,ESE,102,0.0,0.0,52,0.00,CLR,,0.00,WeatherDisplay:10.37,2013-09-01 07:51:00,
2013-09-01 03:56:00,72.0,53.4,29.81,ESE,102,0.0,0.0,52,0.00,CLR,,0.00,WeatherDisplay:10.37,2013-09-01 07:56:00,
2013-09-01 04:01:00,72.1,54.6,29.81,ESE,102,0.0,0.0,54,0.00,CLR,,0.00,WeatherDisplay:10.37,2013-09-01 08:01:00,
2013-09-01 04:06:00,72.3,55.7,29.81,ESE,102,0.0,0.0,56,0.00,CLR,,0.00,WeatherDisplay:10.37,2013-09-01 08:06:00,
2013-09-01 04:11:00,72.7,57.0,29.81,ESE,102,0.0,0.0,58,0.00,CLR,,0.00,WeatherDisplay:10.37,2013-09-01 08:11:00,
2013-09-01 04:16:00,72.7,56.1,29.84,ESE,102,0.0,0.0,56,0.00,CLR,,0.00,WeatherDisplay:10.37,2013-09-01 08:16:00,
2013-09-01 04:21:00,72.9,56.2,29.84,ESE,102,0.0,0.0,56,0.00,CLR,,0.00,WeatherDisplay:10.37,2013-09-01 08:21:00,
2013-09-01 04:26:00,72.9,55.7,29.84,ESE,102,0.0,0.0,55,0.00,CLR,,0.00,WeatherDisplay:10.37,2013-09-01 08:26:00,
2013-09-01 04:31:00,72.9,55.7,29.84,ESE,102,0.0,0.0,55,0.00,CLR,,0.00,WeatherDisplay:10.37,2013-09-01 08:31:00,
2013-09-01 04:36:00,73.0,55.4,29.84,ESE,102,0.0,0.0,54,0.00,CLR,,0.00,WeatherDisplay:10.37,2013-09-01 08:36:00,
2013-09-01 04:41:00,73.4,58.7,29.84,ESE,102,0.0,0.0,60,0.00,CLR,,0.00,WeatherDisplay:10.37,2013-09-01 08:41:00,
2013-09-01 04:46:00,73.6,58.4,29.84,ESE,102,0.0,0.0,59,0.00,CLR,,0.00,WeatherDisplay:10.37,2013-09-01 08:46:00,
2013-09-01 04:51:00,73.9,57.3,29.84,ESE,102,0.0,0.0,56,0.00,CLR,,0.00,WeatherDisplay:10.37,2013-09-01 08:51:00,
2013-09-01 04:56:00,73.9,54.7,29.84,ESE,102,0.0,0.0,51,0.00,CLR,,0.00,WeatherDisplay:10.37,2013-09-01 08:56:00,
2013-09-01 05:01:00,73.2,51.2,29.84,ESE,102,0.0,0.0,46,0.00,CLR,,0.00,WeatherDisplay:10.37,2013-09-01 09:01:00,
2013-09-01 05:06:00,72.9,50.3,29.84,ESE,102,2.3,0.0,45,0.00,CLR,,0.00,WeatherDisplay:10.37,2013-09-01 09:06:00,
2013-09-01 05:11:00,72.5,48.7,29.84,NNW,327,2.3,0.0,43,0.00,CLR,,0.00,WeatherDisplay:10.37,2013-09-01 09:11:00,
2013-09-01 05:16:00,72.3,49.2,29.84,NNW,327,0.0,0.0,44,0.00,CLR,,0.00,WeatherDisplay:10.37,2013-09-01 09:16:00,
2013-09-01 05:21:00,72.1,48.4,29.84,NNW,327,0.0,0.0,43,0.00,CLR,,0.00,WeatherDisplay:10.37,2013-09-01 09:21:00,
2013-09-01 05:26:00,72.0,48.9,29.84,NNW,327,0.0,0.0,44,0.00,CLR,,0.00,WeatherDisplay:10.37,2013-09-01 09:26:00,
2013-09-01 05:31:00,71.8,49.3,29.81,NNW,327,0.0,0.0,45,0.00,CLR,,0.00,WeatherDisplay:10.37,2013-09-01 09:31:00,
2013-09-01 05:36:00,71.1,49.8,29.81,NNW,327,0.0,0.0,47,0.00,CLR,,0.00,WeatherDisplay:10.37,2013-09-01 09:36:00,
2013-09-01 05:41:00,70.9,49.6,29.81,NNW,327,0.0,0.0,47,0.00,CLR,,0.00,WeatherDisplay:10.37,2013-09-01 09:41:00,
2013-09-01 05:46:00,70.9,50.2,29.84,NNW,327,0.0,0.0,48,0.00,CLR,,0.00,WeatherDisplay:10.37,2013-09-01 09:46:00,
2013-09-01 05:51:00,70.7,50.0,29.84,NNW,327,0.0,0.0,48,0.04,RA,,0.04,WeatherDisplay:10.37,2013-09-01 09:51:00,
2013-09-01 05:56:00,70.7,50.6,29.84,NNW,327,0.0,0.0,49,0.04,RA,,0.04,WeatherDisplay:10.37,2013-09-01 09:56:00,
2013-09-01 06:01:00,70.9,50.8,29.81,NNW,327,0.0,0.0,49,0.04,,,0.04,WeatherDisplay:10.37,2013-09-01 10:01:00,
2013-09-01 06:06:00,71.2,52.7,29.81,NNW,327,0.0,0.0,52,0.04,CLR,,0.04,WeatherDisplay:10.37,2013-09-01 10:06:00,
2013-09-01 06:11:00,71.2,52.7,29.81,NNW,327,0.0,0.0,52,0.04,CLR,,0.04,WeatherDisplay:10.37,2013-09-01 10:11:00,
2013-09-01 06:16:00,71.2,52.7,29.84,NNW,327,0.0,0.0,52,0.04,CLR,,0.04,WeatherDisplay:10.37,2013-09-01 10:16:00,
2013-09-01 06:21:00,71.1,52.5,29.84,NNW,327,0.0,0.0,52,0.04,CLR,,0.04,WeatherDisplay:10.37,2013-09-01 10:21:00,
2013-09-01 06:26:00,70.9,52.4,29.84,NNW,327,0.0,0.0,52,0.04,CLR,,0.04,WeatherDisplay:10.37,2013-09-01 10:26:00,
2013-09-01 06:31:00,70.9,52.4,29.87,NNW,327,0.0,0.0,52,0.04,CLR,,0.04,WeatherDisplay:10.37,2013-09-01 10:31:00,
2013-09-01 06:36:00,70.7,52.2,29.87,NNW,327,0.0,0.0,52,0.04,CLR,,0.04,WeatherDisplay:10.37,2013-09-01 10:36:00,
2013-09-01 06:41:00,70.7,52.2,29.87,NNW,327,0.0,0.0,52,0.04,CLR,,0.04,WeatherDisplay:10.37,2013-09-01 10:41:00,
2013-09-01 06:46:00,70.7,52.2,29.87,NNW,327,0.0,0.0,52,0.04,CLR,,0.04,WeatherDisplay:10.37,2013-09-01 10:46:00,
2013-09-01 06:51:00,70.7,52.2,29.87,NNW,327,0.0,0.0,52,0.00,CLR,,0.04,WeatherDisplay:10.37,2013-09-01 10:51:00,
2013-09-01 06:56:00,70.9,52.9,29.87,NNW,327,0.0,0.0,53,0.00,CLR,,0.04,WeatherDisplay:10.37,2013-09-01 10:56:00,
2013-09-01 07:01:00,71.1,53.1,29.87,NNW,327,0.0,0.0,53,0.00,CLR,,0.04,WeatherDisplay:10.37,2013-09-01 11:01:00,
2013-09-01 07:06:00,71.1,53.1,29.87,NNW,327,0.0,0.0,53,0.00,CLR,,0.04,WeatherDisplay:10.37,2013-09-01 11:06:00,
2013-09-01 07:11:00,71.2,53.2,29.87,NNW,327,0.0,0.0,53,0.00,CLR,,0.04,WeatherDisplay:10.37,2013-09-01 11:11:00,
2013-09-01 07:16:00,71.2,52.7,29.87,NNW,327,0.0,0.0,52,0.00,CLR,,0.04,WeatherDisplay:10.37,2013-09-01 11:16:00,
2013-09-01 07:21:00,71.4,52.9,29.87,NNW,327,0.0,0.0,52,0.00,CLR,,0.04,WeatherDisplay:10.37,2013-09-01 11:21:00,
2013-09-01 07:26:00,71.4,53.4,29.87,NNW,327,0.0,0.0,53,0.00,CLR,,0.04,WeatherDisplay:10.37,2013-09-01 11:26:00,
2013-09-01 07:31:00,71.6,53.0,29.87,NNW,327,0.0,0.0,52,0.00,CLR,,0.04,WeatherDisplay:10.37,2013-09-01 11:31:00,
2013-09-01 07:36:00,71.6,53.0,29.87,NNW,327,0.0,0.0,52,0.00,CLR,,0.04,WeatherDisplay:10.37,2013-09-01 11:36:00,
2013-09-01 07:41:00,71.6,53.0,29.87,NNW,327,0.0,0.0,52,0.00,CLR,,0.04,WeatherDisplay:10.37,2013-09-01 11:41:00,
2013-09-01 07:46:00,71.8,53.2,29.87,NNW,327,0.0,0.0,52,0.00,CLR,,0.04,WeatherDisplay:10.37,2013-09-01 11:46:00,
2013-09-01 07:51:00,72.0,53.4,29.87,NNW,327,0.0,0.0,52,0.00,CLR,,0.04,WeatherDisplay:10.37,2013-09-01 11:51:00,
2013-09-01 07:56:00,72.1,53.5,29.87,NNW,327,0.0,0.0,52,0.00,CLR,,0.04,WeatherDisplay:10.37,2013-09-01 11:56:00,
2013-09-01 08:01:00,72.3,53.7,29.90,NNW,327,0.0,0.0,52,0.00,CLR,,0.04,WeatherDisplay:10.37,2013-09-01 12:01:00,
2013-09-01 08:06:00,72.5,53.9,29.90,NNW,327,0.0,0.0,52,0.00,CLR,,0.04,WeatherDisplay:10.37,2013-09-01 12:06:00,
2013-09-01 08:11:00,72.7,54.0,29.90,NNW,327,0.0,0.0,52,0.00,CLR,,0.04,WeatherDisplay:10.37,2013-09-01 12:11:00,
2013-09-01 08:16:00,72.9,54.2,29.87,NNW,327,0.0,0.0,52,0.00,CLR,,0.04,WeatherDisplay:10.37,2013-09-01 12:16:00,
2013-09-01 08:21:00,72.9,54.2,29.87,NNW,327,0.0,0.0,52,0.00,CLR,,0.04,WeatherDisplay:10.37,2013-09-01 12:21:00,
2013-09-01 08:26:00,72.9,53.7,29.87,NNW,327,0.0,0.0,51,0.00,CLR,,0.04,WeatherDisplay:10.37,2013-09-01 12:26:00,
2013-09-01 08:31:00,73.0,53.3,29.87,NNW,327,0.0,0.0,50,0.00,CLR,,0.04,WeatherDisplay:10.37,2013-09-01 12:31:00,
2013-09-01 08:36:00,73.0,52.7,29.87,NNW,327,0.0,0.0,49,0.00,CLR,,0.04,WeatherDisplay:10.37,2013-09-01 12:36:00,
2013-09-01 08:41:00,73.2,52.9,29.87,NNW,327,0.0,0.0,49,0.00,CLR,,0.04,WeatherDisplay:10.37,2013-09-01 12:41:00,
2013-09-01 08:46:00,73.4,53.6,29.87,NNW,327,0.0,0.0,50,0.00,CLR,,0.04,WeatherDisplay:10.37,2013-09-01 12:46:00,
2013-09-01 08:51:00,73.0,51.6,29.87,NNW,327,0.0,0.0,47,0.00,CLR,,0.04,WeatherDisplay:10.37,2013-09-01 12:51:00,
2013-09-01 08:56:00,73.2,51.8,29.87,NNW,327,0.0,0.0,47,0.00,CLR,,0.04,WeatherDisplay:10.37,2013-09-01 12:56:00,
2013-09-01 09:01:00,73.0,50.4,29.87,NNW,327,0.0,0.0,45,0.00,CLR,,0.04,WeatherDisplay:10.37,2013-09-01 13:01:00,
2013-09-01 09:06:00,73.2,51.2,29.87,NNW,327,0.0,0.0,46,0.00,CLR,,0.04,WeatherDisplay:10.37,2013-09-01 13:06:00,
2013-09-01 09:11:00,72.3,47.9,29.87,NNW,327,2.3,0.0,42,0.00,CLR,,0.04,WeatherDisplay:10.37,2013-09-01 13:11:00,
2013-09-01 09:16:00,72.7,48.9,29.87,NNW,327,0.0,0.0,43,0.00,CLR,,0.04,WeatherDisplay:10.37,2013-09-01 13:16:00,
2013-09-01 09:21:00,73.0,49.2,29.87,NNW,327,0.0,0.0,43,0.00,CLR,,0.04,WeatherDisplay:10.37,2013-09-01 13:21:00,
2013-09-01 09:26:00,73.2,49.4,29.87,NNW,327,0.0,0.0,43,0.00,CLR,,0.04,WeatherDisplay:10.37,2013-09-01 13:26:00,
2013-09-01 09:31:00,73.4,48.9,29.90,ENE,69,3.5,0.0,42,0.00,CLR,,0.04,WeatherDisplay:10.37,2013-09-01 13:31:00,
2013-09-01 09:36:00,73.4,46.9,29.90,ENE,69,0.0,0.0,39,0.00,CLR,,0.04,WeatherDisplay:10.37,2013-09-01 13:36:00,
2013-09-01 09:41:00,73.4,45.5,29.90,NNE,16,0.0,0.0,37,0.00,CLR,,0.04,WeatherDisplay:10.37,2013-09-01 13:41:00,
2013-09-01 09:46:00,73.9,46.7,29.90,NNE,16,0.0,0.0,38,0.00,CLR,,0.04,WeatherDisplay:10.37,2013-09-01 13:46:00,
2013-09-01 09:51:00,74.5,44.3,29.90,NNE,16,2.3,0.0,34,0.00,CLR,,0.04,WeatherDisplay:10.37,2013-09-01 13:51:00,
2013-09-01 09:56:00,74.7,43.6,29.90,WSW,254,2.3,0.0,33,0.00,CLR,,0.04,WeatherDisplay:10.37,2013-09-01 13:56:00,
2013-09-01 10:01:00,75.2,44.1,29.90,WSW,237,0.0,0.0,33,0.00,CLR,,0.04,WeatherDisplay:10.37,2013-09-01 14:01:00,
2013-09-01 10:06:00,75.4,45.1,29.90,ENE,74,3.5,0.0,34,0.00,CLR,,0.04,WeatherDisplay:10.37,2013-09-01 14:06:00,
2013-09-01 10:11:00,75.4,44.3,29.90,NW,313,0.0,0.0,33,0.00,CLR,,0.04,WeatherDisplay:10.37,2013-09-01 14:11:00,
2013-09-01 10:16:00,75.6,44.4,29.90,East,87,0.0,0.0,33,0.00,CLR,,0.04,WeatherDisplay:10.37,2013-09-01 14:16:00,
2013-09-01 10:21:00,75.9,44.7,29.90,WSW,251,0.0,0.0,33,0.00,CLR,,0.04,WeatherDisplay:10.37,2013-09-01 14:21:00,
2013-09-01 10:26:00,75.9,43.9,29.90,ESE,108,0.0,0.0,32,0.00,CLR,,0.04,WeatherDisplay:10.37,2013-09-01 14:26:00,
2013-09-01 10:31:00,76.1,44.1,29.90,NNE,31,2.3,0.0,32,0.00,CLR,,0.04,WeatherDisplay:10.37,2013-09-01 14:31:00,
2013-09-01 10:36:00,76.3,44.2,29.90,NNE,31,0.0,0.0,32,0.00,CLR,,0.04,WeatherDisplay:10.37,2013-09-01 14:36:00,
2013-09-01 10:41:00,76.6,44.6,29.90,NE,38,0.0,0.0,32,0.00,CLR,,0.04,WeatherDisplay:10.37,2013-09-01 14:41:00,
2013-09-01 10:46:00,76.8,44.7,29.90,NE,38,0.0,0.0,32,0.00,CLR,,0.04,WeatherDisplay:10.37,2013-09-01 14:46:00,
2013-09-01 10:51:00,76.6,43.7,29.90,WNW,296,2.3,0.0,31,0.00,CLR,,0.04,WeatherDisplay:10.37,2013-09-01 14:51:00,
2013-09-01 10:56:00,76.8,43.9,29.90,ESE,110,0.0,0.0,31,0.00,CLR,,0.04,WeatherDisplay:10.37,2013-09-01 14:56:00,
2013-09-01 11:01:00,77.4,44.4,29.90,North,357,2.3,0.0,31,0.00,CLR,,0.04,WeatherDisplay:10.37,2013-09-01 15:01:00,
2013-09-01 11:06:00,77.7,44.7,29.90,North,349,0.0,0.0,31,0.00,CLR,,0.04,WeatherDisplay:10.37,2013-09-01 15:06:00,
2013-09-01 11:11:00,77.7,44.7,29.90,North,349,0.0,0.0,31,0.00,CLR,,0.04,WeatherDisplay:10.37,2013-09-01 15:11:00,
2013-09-01 11:16:00,77.7,44.7,29.90,North,353,0.0,0.0,31,0.00,CLR,,0.04,WeatherDisplay:10.37,2013-09-01 15:16:00,
2013-09-01 11:21:00,77.5,44.5,29.90,North,353,0.0,0.0,31,0.00,CLR,,0.04,WeatherDisplay:10.37,2013-09-01 15:21:00,
2013-09-01 11:26:00,77.5,44.5,29.90,East,80,2.3,0.0,31,0.00,CLR,,0.04,WeatherDisplay:10.37,2013-09-01 15:26:00,
2013-09-01 11:31:00,77.4,44.4,29.90,East,82,0.0,0.0,31,0.00,CLR,,0.04,WeatherDisplay:10.37,2013-09-01 15:31:00,
2013-09-01 11:36:00,78.4,45.3,29.90,NE,43,0.0,0.0,31,0.00,CLR,,0.04,WeatherDisplay:10.37,2013-09-01 15:36:00,
2013-09-01 11:41:00,79.0,44.9,29.90,South,184,3.5,0.0,30,0.00,CLR,,0.04,WeatherDisplay:10.37,2013-09-01 15:41:00,
2013-09-01 11:46:00,79.0,44.9,29.90,WSW,258,3.5,0.0,30,0.00,CLR,,0.04,WeatherDisplay:10.37,2013-09-01 15:46:00,
2013-09-01 11:51:00,79.0,44.9,29.90,ENE,66,2.3,0.0,30,0.00,CLR,,0.04,WeatherDisplay:10.37,2013-09-01 15:51:00,
2013-09-01 11:56:00,79.0,44.9,29.90,South,176,5.8,0.0,30,0.00,CLR,,0.04,WeatherDisplay:10.37,2013-09-01 15:56:00,
2013-09-01 12:01:00,79.3,45.2,29.90,SSE,151,2.3,0.0,30,0.00,CLR,,0.04,WeatherDisplay:10.37,2013-09-01 16:01:00,
2013-09-01 12:06:00,79.9,45.7,29.90,NE,36,3.5,3.5,30,0.00,CLR,,0.04,WeatherDisplay:10.37,2013-09-01 16:06:00,
2013-09-01 12:11:00,80.8,46.4,29.90,North,1,3.5,0.0,30,0.00,CLR,,0.04,WeatherDisplay:10.37,2013-09-01 16:11:00,
2013-09-01 12:16:00,84.2,45.6,29.90,SW,217,3.5,3.5,26,0.00,CLR,,0.04,WeatherDisplay:10.37,2013-09-01 16:16:00,
2013-09-01 12:21:00,84.2,42.4,29.90,WSW,246,3.5,0.0,23,0.00,CLR,,0.04,WeatherDisplay:10.37,2013-09-01 16:21:00,
2013-09-01 12:26:00,85.8,43.7,29.90,NE,51,0.0,0.0,23,0.00,CLR,,0.04,WeatherDisplay:10.37,2013-09-01 16:26:00,
2013-09-01 12:31:00,85.3,43.3,29.90,NW,306,3.5,3.6,23,0.00,CLR,,0.04,WeatherDisplay:10.37,2013-09-01 16:31:00,
2013-09-01 12:36:00,84.7,42.8,29.90,South,171,0.0,0.0,23,0.00,CLR,,0.04,WeatherDisplay:10.37,2013-09-01 16:36:00,
2013-09-01 12:41:00,84.4,42.5,29.90,SW,226,3.5,0.0,23,0.00,CLR,,0.04,WeatherDisplay:10.37,2013-09-01 16:41:00,
2013-09-01 12:46:00,82.9,42.4,29.90,WNW,301,3.5,3.5,24,0.00,CLR,,0.04,WeatherDisplay:10.37,2013-09-01 16:46:00,
2013-09-01 12:51:00,82.6,44.2,29.90,ESE,118,3.5,0.0,26,0.00,CLR,,0.04,WeatherDisplay:10.37,2013-09-01 16:51:00,
2013-09-01 12:56:00,82.4,44.1,29.90,SSE,151,0.0,0.0,26,0.00,CLR,,0.04,WeatherDisplay:10.37,2013-09-01 16:56:00,
2013-09-01 13:01:00,81.7,44.4,29.90,WNW,302,3.5,0.0,27,0.00,CLR,,0.04,WeatherDisplay:10.37,2013-09-01 17:01:00,
2013-09-01 13:06:00,82.2,44.9,29.90,SSW,202,4.0,0.0,27,0.00,CLR,,0.04,WeatherDisplay:10.37,2013-09-01 17:06:00,
2013-09-01 13:11:00,81.9,44.6,29.90,East,81,3.5,0.0,27,0.00,CLR,,0.04,WeatherDisplay:10.37,2013-09-01 17:11:00,
2013-09-01 13:16:00,81.9,44.6,29.87,NNW,341,3.5,3.5,27,0.00,CLR,,0.04,WeatherDisplay:10.37,2013-09-01 17:16:00,
2013-09-01 13:21:00,82.6,44.2,29.87,North,8,2.3,0.0,26,0.00,CLR,,0.04,WeatherDisplay:10.37,2013-09-01 17:21:00,
2013-09-01 13:26:00,82.8,44.4,29.87,NNE,29,2.3,0.0,26,0.00,CLR,,0.04,WeatherDisplay:10.37,2013-09-01 17:26:00,
2013-09-01 13:31:00,82.2,44.9,29.87,NNE,32,0.0,0.0,27,0.00,CLR,,0.04,WeatherDisplay:10.37,2013-09-01 17:31:00,
2013-09-01 13:36:00,81.7,44.4,29.87,WNW,300,2.3,0.0,27,0.00,CLR,,0.04,WeatherDisplay:10.37,2013-09-01 17:36:00,
2013-09-01 13:41:00,81.5,44.3,29.87,WNW,299,2.3,0.0,27,0.00,CLR,,0.04,WeatherDisplay:10.37,2013-09-01 17:41:00,
2013-09-01 13:46:00,81.7,44.4,29.87,NNW,332,0.0,0.0,27,0.00,CLR,,0.04,WeatherDisplay:10.37,2013-09-01 17:46:00,
2013-09-01 13:51:00,81.7,44.4,29.87,NW,318,3.5,0.0,27,0.00,CLR,,0.04,WeatherDisplay:10.37,2013-09-01 17:51:00,
2013-09-01 13:56:00,81.3,44.1,29.87,West,265,2.3,0.0,27,0.00,CLR,,0.04,WeatherDisplay:10.37,2013-09-01 17:56:00,
2013-09-01 14:01:00,82.2,44.9,29.87,NNW,344,3.5,0.0,27,0.00,CLR,,0.04,WeatherDisplay:10.37,2013-09-01 18:01:00,
2013-09-01 14:06:00,82.2,44.9,29.87,NNW,344,5.8,0.0,27,0.00,CLR,,0.04,WeatherDisplay:10.37,2013-09-01 18:06:00,
2013-09-01 14:11:00,84.2,45.6,29.87,WNW,300,3.5,3.5,26,0.00,CLR,,0.04,WeatherDisplay:10.37,2013-09-01 18:11:00,
2013-09-01 14:16:00,84.9,46.2,29.87,NW,311,4.6,0.0,26,0.00,CLR,,0.04,WeatherDisplay:10.37,2013-09-01 18:16:00,
2013-09-01 14:21:00,83.7,45.1,29.87,WNW,302,3.5,3.5,26,0.00,CLR,,0.04,WeatherDisplay:10.37,2013-09-01 18:21:00,
2013-09-01 14:26:00,83.7,45.1,29.87,North,357,2.3,0.0,26,0.00,CLR,,0.04,WeatherDisplay:10.37,2013-09-01 18:26:00,
2013-09-01 14:31:00,83.5,45.0,29.87,North,357,0.0,0.0,26,0.00,CLR,,0.04,WeatherDisplay:10.37,2013-09-01 18:31:00,
2013-09-01 14:36:00,84.7,46.0,29.87,North,357,0.0,0.0,26,0.00,CLR,,0.04,WeatherDisplay:10.37,2013-09-01 18:36:00,
2013-09-01 14:41:00,85.5,43.4,29.87,East,91,2.3,0.0,23,0.00,CLR,,0.04,WeatherDisplay:10.37,2013-09-01 18:41:00,
2013-09-01 14:46:00,87.8,45.4,29.87,East,91,3.5,0.0,23,0.00,CLR,,0.04,WeatherDisplay:10.37,2013-09-01 18:46:00,
2013-09-01 14:51:00,86.9,44.6,29.87,ENE,70,2.3,0.0,23,0.00,CLR,,0.04,WeatherDisplay:10.37,2013-09-01 18:51:00,
2013-09-01 14:56:00,84.7,42.8,29.87,ENE,70,0.0,0.0,23,0.00,CLR,,0.04,WeatherDisplay:10.37,2013-09-01 18:56:00,
2013-09-01 15:01:00,83.8,43.2,29.87,East,82,3.5,0.0,24,0.00,CLR,,0.04,WeatherDisplay:10.37,2013-09-01 19:01:00,
2013-09-01 15:06:00,83.8,43.2,29.87,SSE,165,0.0,0.0,24,0.00,CLR,,0.04,WeatherDisplay:10.37,2013-09-01 19:06:00,
2013-09-01 15:11:00,83.7,43.0,29.87,ESE,111,3.5,0.0,24,0.00,CLR,,0.04,WeatherDisplay:10.37,2013-09-01 19:11:00,
2013-09-01 15:16:00,83.3,42.7,29.87,NE,44,3.5,3.5,24,0.00,CLR,,0.04,WeatherDisplay:10.37,2013-09-01 19:16:00,
2013-09-01 15:21:00,83.5,45.0,29.87,NW,317,0.0,0.0,26,0.00,CLR,,0.04,WeatherDisplay:10.37,2013-09-01 19:21:00,
2013-09-01 15:26:00,83.3,44.8,29.87,WNW,301,0.0,0.0,26,0.00,CLR,,0.04,WeatherDisplay:10.37,2013-09-01 19:26:00,
2013-09-01 15:31:00,82.8,44.4,29.87,SE,142,4.0,0.0,26,0.00,CLR,,0.04,WeatherDisplay:10.37,2013-09-01 19:31:00,
2013-09-01 15:36:00,82.6,44.2,29.87,ENE,66,3.5,0.0,26,0.00,CLR,,0.04,WeatherDisplay:10.37,2013-09-01 19:36:00,
2013-09-01 15:41:00,82.9,44.5,29.87,NNE,22,3.5,0.0,26,0.00,CLR,,0.04,WeatherDisplay:10.37,2013-09-01 19:41:00,
2013-09-01 15:46:00,83.3,44.8,29.84,NNE,22,0.0,0.0,26,0.00,CLR,,0.04,WeatherDisplay:10.37,2013-09-01 19:46:00,
2013-09-01 15:51:00,83.7,45.1,29.84,NNE,14,3.5,0.0,26,0.00,CLR,,0.04,WeatherDisplay:10.37,2013-09-01 19:51:00,
2013-09-01 15:56:00,83.8,43.2,29.84,NNE,15,2.3,0.0,24,0.00,CLR,,0.04,WeatherDisplay:10.37,2013-09-01 19:56:00,
2013-09-01 16:01:00,83.8,43.2,29.84,NNW,329,0.0,0.0,24,0.00,CLR,,0.04,WeatherDisplay:10.37,2013-09-01 20:01:00,
2013-09-01 16:06:00,83.7,43.0,29.84,NNW,329,0.0,0.0,24,0.00,CLR,,0.04,WeatherDisplay:10.37,2013-09-01 20:06:00,
2013-09-01 16:11:00,83.3,42.7,29.84,NW,305,2.3,0.0,24,0.00,CLR,,0.04,WeatherDisplay:10.37,2013-09-01 20:11:00,
2013-09-01 16:16:00,83.1,44.7,29.87,WNW,290,2.3,0.0,26,0.00,CLR,,0.04,WeatherDisplay:10.37,2013-09-01 20:16:00,
2013-09-01 16:21:00,82.8,44.4,29.87,NW,326,2.3,0.0,26,0.00,CLR,,0.04,WeatherDisplay:10.37,2013-09-01 20:21:00,
2013-09-01 16:26:00,83.1,42.6,29.87,NW,326,0.0,0.0,24,0.00,CLR,,0.04,WeatherDisplay:10.37,2013-09-01 20:26:00,
2013-09-01 16:31:00,82.9,44.5,29.87,NW,326,0.0,0.0,26,0.00,CLR,,0.04,WeatherDisplay:10.37,2013-09-01 20:31:00,
2013-09-01 16:36:00,82.9,44.5,29.87,South,169,3.5,0.0,26,0.00,CLR,,0.04,WeatherDisplay:10.37,2013-09-01 20:36:00,
2013-09-01 16:41:00,82.9,44.5,29.87,NE,41,3.5,0.0,26,0.00,CLR,,0.04,WeatherDisplay:10.37,2013-09-01 20:41:00,
2013-09-01 16:46:00,83.1,44.7,29.87,ESE,106,0.0,0.0,26,0.00,CLR,,0.04,WeatherDisplay:10.37,2013-09-01 20:46:00,
2013-09-01 16:51:00,82.8,44.4,29.87,North,10,0.0,0.0,26,0.00,CLR,,0.04,WeatherDisplay:10.37,2013-09-01 20:51:00,
2013-09-01 16:56:00,82.6,44.2,29.87,NE,48,3.5,0.0,26,0.00,CLR,,0.04,WeatherDisplay:10.37,2013-09-01 20:56:00,
2013-09-01 17:01:00,82.6,44.2,29.87,ESE,106,3.5,0.0,26,0.00,CLR,,0.04,WeatherDisplay:10.37,2013-09-01 21:01:00,
2013-09-01 17:06:00,82.2,44.9,29.87,NW,314,2.3,0.0,27,0.00,CLR,,0.04,WeatherDisplay:10.37,2013-09-01 21:06:00,
2013-09-01 17:11:00,82.2,44.9,29.87,ESE,103,3.5,0.0,27,0.00,CLR,,0.04,WeatherDisplay:10.37,2013-09-01 21:11:00,
2013-09-01 17:16:00,81.7,44.4,29.84,NNE,15,0.0,0.0,27,0.00,CLR,,0.04,WeatherDisplay:10.37,2013-09-01 21:16:00,
2013-09-01 17:21:00,80.8,43.7,29.84,NNE,15,0.0,0.0,27,0.00,CLR,,0.04,WeatherDisplay:10.37,2013-09-01 21:21:00,
2013-09-01 17:26:00,80.2,43.2,29.84,ENE,64,3.5,0.0,27,0.00,CLR,,0.04,WeatherDisplay:10.37,2013-09-01 21:26:00,
2013-09-01 17:31:00,79.9,45.7,29.87,ENE,73,0.0,0.0,30,0.00,CLR,,0.04,WeatherDisplay:10.37,2013-09-01 21:31:00,
2013-09-01 17:36:00,79.5,45.4,29.87,ENE,74,0.0,0.0,30,0.00,CLR,,0.04,WeatherDisplay:10.37,2013-09-01 21:36:00,
2013-09-01 17:41:00,79.2,45.0,29.87,ENE,74,0.0,0.0,30,0.00,CLR,,0.04,WeatherDisplay:10.37,2013-09-01 21:41:00,
2013-09-01 17:46:00,79.2,45.0,29.87,ENE,74,0.0,0.0,30,0.00,CLR,,0.04,WeatherDisplay:10.37,2013-09-01 21:46:00,
2013-09-01 17:51:00,79.2,45.0,29.87,ENE,74,0.0,0.0,30,0.00,CLR,,0.04,WeatherDisplay:10.37,2013-09-01 21:51:00,
2013-09-01 17:56:00,79.0,44.9,29.87,ENE,74,0.0,0.0,30,0.00,CLR,,0.04,WeatherDisplay:10.37,2013-09-01 21:56:00,
2013-09-01 18:01:00,79.0,45.8,29.87,ENE,74,0.0,0.0,31,0.00,CLR,,0.04,WeatherDisplay:10.37,2013-09-01 22:01:00,
2013-09-01 18:06:00,79.0,45.8,29.87,ENE,74,0.0,0.0,31,0.00,CLR,,0.04,WeatherDisplay:10.37,2013-09-01 22:06:00,
2013-09-01 18:11:00,78.8,45.6,29.87,SSE,152,0.0,0.0,31,0.00,CLR,,0.04,WeatherDisplay:10.37,2013-09-01 22:11:00,
2013-09-01 18:16:00,78.6,45.4,29.87,ENE,59,2.3,0.0,31,0.00,CLR,,0.04,WeatherDisplay:10.37,2013-09-01 22:16:00,
2013-09-01 18:21:00,78.4,45.3,29.87,ESE,113,0.0,0.0,31,0.00,CLR,,0.04,WeatherDisplay:10.37,2013-09-01 22:21:00,
2013-09-01 18:26:00,78.3,45.1,29.87,ESE,113,0.0,0.0,31,0.00,CLR,,0.04,WeatherDisplay:10.37,2013-09-01 22:26:00,
2013-09-01 18:31:00,78.1,45.0,29.87,SE,139,3.5,0.0,31,0.00,CLR,,0.04,WeatherDisplay:10.37,2013-09-01 22:31:00,
2013-09-01 18:36:00,77.9,45.7,29.87,ESE,109,0.0,0.0,32,0.00,CLR,,0.04,WeatherDisplay:10.37,2013-09-01 22:36:00,
2013-09-01 18:41:00,77.5,45.3,29.87,ESE,109,0.0,0.0,32,0.00,CLR,,0.04,WeatherDisplay:10.37,2013-09-01 22:41:00,
2013-09-01 18:46:00,77.4,45.2,29.87,ESE,109,0.0,0.0,32,0.00,CLR,,0.04,WeatherDisplay:10.37,2013-09-01 22:46:00,
2013-09-01 18:51:00,77.2,45.8,29.87,ESE,109,0.0,0.0,33,0.00,CLR,,0.04,WeatherDisplay:10.37,2013-09-01 22:51:00,
2013-09-01 18:56:00,77.0,45.7,29.87,ESE,109,0.0,0.0,33,0.00,CLR,,0.04,WeatherDisplay:10.37,2013-09-01 22:56:00,
2013-09-01 19:01:00,76.8,46.3,29.87,ESE,109,0.0,0.0,34,0.00,CLR,,0.04,WeatherDisplay:10.37,2013-09-01 23:01:00,
2013-09-01 19:06:00,76.8,46.3,29.87,ENE,68,0.0,0.0,34,0.00,CLR,,0.04,WeatherDisplay:10.37,2013-09-01 23:06:00,
2013-09-01 19:11:00,76.6,46.2,29.87,SE,128,0.0,0.0,34,0.00,CLR,,0.04,WeatherDisplay:10.37,2013-09-01 23:11:00,
2013-09-01 19:16:00,76.6,46.2,29.87,SE,128,0.0,0.0,34,0.00,CLR,,0.04,WeatherDisplay:10.37,2013-09-01 23:16:00,
2013-09-01 19:21:00,76.5,46.8,29.87,SE,128,0.0,0.0,35,0.00,CLR,,0.04,WeatherDisplay:10.37,2013-09-01 23:21:00,
2013-09-01 19:26:00,76.3,46.6,29.87,SE,128,0.0,0.0,35,0.00,CLR,,0.04,WeatherDisplay:10.37,2013-09-01 23:26:00,
2013-09-01 19:31:00,76.3,48.8,29.87,SE,128,0.0,0.0,38,0.00,CLR,,0.04,WeatherDisplay:10.37,2013-09-01 23:31:00,
2013-09-01 19:36:00,76.3,48.8,29.87,SE,128,0.0,0.0,38,0.00,CLR,,0.04,WeatherDisplay:10.37,2013-09-01 23:36:00,
2013-09-01 19:41:00,76.1,47.9,29.87,SE,128,0.0,0.0,37,0.00,CLR,,0.04,WeatherDisplay:10.37,2013-09-01 23:41:00,
2013-09-01 19:46:00,75.9,47.8,29.87,SE,128,0.0,0.0,37,0.00,CLR,,0.04,WeatherDisplay:10.37,2013-09-01 23:46:00,
2013-09-01 19:51:00,75.7,48.3,29.87,SE,128,0.0,0.0,38,0.00,CLR,,0.04,WeatherDisplay:10.37,2013-09-01 23:51:00,
2013-09-01 19:56:00,75.6,48.2,29.87,SE,128,0.0,0.0,38,0.00,CLR,,0.04,WeatherDisplay:10.37,2013-09-01 23:56:00,
2013-09-01 20:01:00,75.6,48.9,29.90,SE,128,0.0,0.0,39,0.00,CLR,,0.04,WeatherDisplay:10.37,2013-09-02 00:01:00,
2013-09-01 20:06:00,75.6,50.2,29.90,SE,128,0.0,0.0,41,0.00,CLR,,0.04,WeatherDisplay:10.37,2013-09-02 00:06:00,
2013-09-01 20:11:00,75.4,50.0,29.90,SE,128,0.0,0.0,41,0.00,CLR,,0.04,WeatherDisplay:10.37,2013-09-02 00:11:00,
2013-09-01 20:16:00,75.4,50.0,29.90,SE,128,0.0,0.0,41,0.00,CLR,,0.04,WeatherDisplay:10.37,2013-09-02 00:16:00,
2013-09-01 20:21:00,75.4,50.0,29.90,SE,128,0.0,0.0,41,0.00,CLR,,0.04,WeatherDisplay:10.37,2013-09-02 00:21:00,
2013-09-01 20:26:00,75.4,50.0,29.90,SE,128,0.0,0.0,41,0.00,CLR,,0.04,WeatherDisplay:10.37,2013-09-02 00:26:00,
2013-09-01 20:31:00,75.4,50.0,29.90,SE,128,0.0,0.0,41,0.00,CLR,,0.04,WeatherDisplay:10.37,2013-09-02 00:31:00,
2013-09-01 20:36:00,75.4,50.0,29.90,SE,128,0.0,0.0,41,0.00,CLR,,0.04,WeatherDisplay:10.37,2013-09-02 00:36:00,
2013-09-01 20:41:00,75.6,50.9,29.90,SE,128,0.0,0.0,42,0.00,CLR,,0.04,WeatherDisplay:10.37,2013-09-02 00:41:00,
2013-09-01 20:46:00,75.4,50.7,29.90,SSE,166,2.3,0.0,42,0.00,CLR,,0.04,WeatherDisplay:10.37,2013-09-02 00:46:00,
2013-09-01 20:51:00,75.6,50.9,29.90,SSE,166,0.0,0.0,42,0.00,CLR,,0.04,WeatherDisplay:10.37,2013-09-02 00:51:00,
2013-09-01 20:56:00,75.4,50.7,29.90,SSE,166,0.0,0.0,42,0.00,CLR,,0.04,WeatherDisplay:10.37,2013-09-02 00:56:00,
2013-09-01 21:01:00,75.4,50.7,29.87,SSE,166,0.0,0.0,42,0.00,CLR,,0.04,WeatherDisplay:10.37,2013-09-02 01:01:00,
2013-09-01 21:06:00,75.4,51.3,29.87,SSE,166,0.0,0.0,43,0.00,CLR,,0.04,WeatherDisplay:10.37,2013-09-02 01:06:00,
2013-09-01 21:11:00,75.4,51.3,29.87,SSE,166,0.0,0.0,43,0.00,CLR,,0.04,WeatherDisplay:10.37,2013-09-02 01:11:00,
2013-09-01 21:16:00,75.4,51.3,29.90,SSE,166,0.0,0.0,43,0.00,CLR,,0.04,WeatherDisplay:10.37,2013-09-02 01:16:00,
2013-09-01 21:21:00,75.4,51.3,29.90,SSE,166,0.0,0.0,43,0.00,CLR,,0.04,WeatherDisplay:10.37,2013-09-02 01:21:00,
2013-09-01 21:26:00,75.2,51.2,29.90,SSE,166,0.0,0.0,43,0.00,CLR,,0.04,WeatherDisplay:10.37,2013-09-02 01:26:00,
2013-09-01 21:31:00,75.0,51.6,29.90,SSE,166,0.0,0.0,44,0.00,CLR,,0.04,WeatherDisplay:10.37,2013-09-02 01:31:00,
2013-09-01 21:36:00,75.0,51.6,29.90,SSE,166,0.0,0.0,44,0.00,CLR,,0.04,WeatherDisplay:10.37,2013-09-02 01:36:00,
2013-09-01 21:41:00,75.0,51.6,29.90,SSE,166,0.0,0.0,44,0.00,CLR,,0.04,WeatherDisplay:10.37,2013-09-02 01:41:00,
2013-09-01 21:46:00,74.8,51.5,29.90,SSE,166,0.0,0.0,44,0.00,CLR,,0.04,WeatherDisplay:10.37,2013-09-02 01:46:00,
2013-09-01 21:51:00,74.8,51.5,29.90,SSE,166,0.0,0.0,44,0.00,CLR,,0.04,WeatherDisplay:10.37,2013-09-02 01:51:00,
2013-09-01 21:56:00,74.7,51.3,29.90,SSE,166,0.0,0.0,44,0.00,CLR,,0.04,WeatherDisplay:10.37,2013-09-02 01:56:00,
2013-09-01 22:01:00,74.7,51.3,29.90,SSE,166,0.0,0.0,44,0.00,CLR,,0.04,WeatherDisplay:10.37,2013-09-02 02:01:00,
2013-09-01 22:06:00,74.7,51.3,29.90,SSE,166,0.0,0.0,44,0.00,CLR,,0.04,WeatherDisplay:10.37,2013-09-02 02:06:00,
2013-09-01 22:11:00,74.7,51.3,29.90,SSE,166,0.0,0.0,44,0.00,CLR,,0.04,WeatherDisplay:10.37,2013-09-02 02:11:00,
2013-09-01 22:16:00,74.7,51.3,29.90,SSE,166,0.0,0.0,44,0.00,CLR,,0.04,WeatherDisplay:10.37,2013-09-02 02:16:00,
2013-09-01 22:21:00,74.5,51.1,29.90,SSE,166,0.0,0.0,44,0.00,CLR,,0.04,WeatherDisplay:10.37,2013-09-02 02:21:00,
2013-09-01 22:26:00,74.5,51.1,29.90,SSE,166,0.0,0.0,44,0.00,CLR,,0.04,WeatherDisplay:10.37,2013-09-02 02:26:00,
2013-09-01 22:31:00,74.3,51.0,29.90,SE,125,0.0,0.0,44,0.00,CLR,,0.04,WeatherDisplay:10.37,2013-09-02 02:31:00,
2013-09-01 22:36:00,74.3,51.6,29.90,ENE,68,2.3,0.0,45,0.00,CLR,,0.04,WeatherDisplay:10.37,2013-09-02 02:36:00,
2013-09-01 22:41:00,74.1,51.4,29.90,ENE,68,0.0,0.0,45,0.00,CLR,,0.04,WeatherDisplay:10.37,2013-09-02 02:41:00,
2013-09-01 22:46:00,73.9,51.3,29.90,ENE,68,0.0,0.0,45,0.00,CLR,,0.04,WeatherDisplay:10.37,2013-09-02 02:46:00,
2013-09-01 22:51:00,73.9,51.3,29.90,ENE,68,0.0,0.0,45,0.00,CLR,,0.04,WeatherDisplay:10.37,2013-09-02 02:51:00,
2013-09-01 22:56:00,73.9,51.3,29.90,ENE,68,0.0,0.0,45,0.00,CLR,,0.04,WeatherDisplay:10.37,2013-09-02 02:56:00,
2013-09-01 23:01:00,73.9,51.3,29.90,ENE,68,0.0,0.0,45,0.00,CLR,,0.04,WeatherDisplay:10.37,2013-09-02 03:01:00,
2013-09-01 23:06:00,74.1,51.4,29.90,ENE,68,0.0,0.0,45,0.00,CLR,,0.04,WeatherDisplay:10.37,2013-09-02 03:06:00,
2013-09-01 23:11:00,74.1,51.4,29.90,ENE,68,0.0,0.0,45,0.00,CLR,,0.04,WeatherDisplay:10.37,2013-09-02 03:11:00,
2013-09-01 23:16:00,74.1,51.4,29.90,ENE,68,0.0,0.0,45,0.00,CLR,,0.04,WeatherDisplay:10.37,2013-09-02 03:16:00,
2013-09-01 23:21:00,74.1,51.4,29.90,ENE,68,0.0,0.0,45,0.00,CLR,,0.04,WeatherDisplay:10.37,2013-09-02 03:21:00,
2013-09-01 23:26:00,74.1,51.4,29.90,SE,125,0.0,0.0,45,0.00,CLR,,0.04,WeatherDisplay:10.37,2013-09-02 03:26:00,
2013-09-01 23:31:00,74.1,51.4,29.90,East,100,2.3,0.0,45,0.00,CLR,,0.04,WeatherDisplay:10.37,2013-09-02 03:31:00,
2013-09-01 23:36:00,73.9,51.3,29.90,East,100,0.0,0.0,45,0.00,CLR,,0.04,WeatherDisplay:10.37,2013-09-02 03:36:00,
2013-09-01 23:41:00,73.8,51.1,29.90,SE,140,0.0,0.0,45,0.00,CLR,,0.04,WeatherDisplay:10.37,2013-09-02 03:41:00,
2013-09-01 23:46:00,73.8,51.1,29.90,South,174,0.0,0.0,45,0.00,CLR,,0.04,WeatherDisplay:10.37,2013-09-02 03:46:00,
2013-09-01 23:51:00,73.6,50.9,29.90,SSE,159,3.5,0.0,45,0.00,CLR,,0.04,WeatherDisplay:10.37,2013-09-02 03:51:00,
2013-09-01 23:56:00,73.6,50.9,29.90,East,98,0.0,0.0,45,0.00,CLR,,0.04,WeatherDisplay:10.37,2013-09-02 03:56:00,